STARLINK-1915 (46750 NORAD) Tracking and Keplerian Element Data

This shows tracking and keplerian element data for the satellite.

Feedback or suggestion? Click here.




ElementValue
Catalog46750
NameSTARLINK-1915
Epoch Orbit253
Epoch Day311.44497441
Epoch Year2020
RAAN96.5756
Inclination53.0425
Eccentricity0.0011441
Argument of Perigee329.5575
Mean Anonmoly36.9847
Mean Motion16.41727675
Decay Rate0.27626385
L11 46750U 20074M 20311.44497441 .27626385 12576-4 14304-2 0 9997
L22 46750 53.0425 96.5756 0011441 329.5575 36.9847 16.41727675 2531

Live tracking and technical data element details for STARLINK-1915 (NORAD 46750). STARLINK-1915 can be tracked NOW for your location showing map with azimuth and elevation plus other details from your city location.

Track the satellite on the map from your city or location and see movement details for azimuth, elevation, latitude, longitude, range, height, and movement on the map or in text.







IsCatalogInMostPopularTable: catalog: 46750, numindb: 7
Update: records affected: 1



GetName: 46750 STARLINK-1915

Hit Count: updated at: Tue, 24 Nov 2020 11:35:51 GMT